This is the latest recevied weather packets stored in our database for station/object WA0GMH-1. If no packets are shown the sender has not sent any weather packets the latest 10 day(s).
| Time | Temp. | Humidity | Pressure | Rain* | Wind** | Luminosity | Snow |
|---|---|---|---|---|---|---|---|
| 1777569136 | 11.11° C | 13% | 1020.6 hPa | 0 mm | - | - | - |
| 1777568734 | 10.56° C | 12% | 1020.7 hPa | 0 mm | - | - | - |
| 1777568332 | 10.56° C | 17% | 1020.7 hPa | 0 mm | - | - | - |
| 1777567930 | 10.56° C | 17% | 1020.9 hPa | 0 mm | - | - | - |
| 1777567527 | 10.56° C | 18% | 1020.8 hPa | 0 mm | - | - | - |
| 1777567125 | 10.56° C | 20% | 1020.8 hPa | 0 mm | - | - | - |
| 1777566723 | 10° C | 21% | 1021 hPa | 0 mm | - | - | - |
| 1777566321 | 10° C | 19% | 1020.9 hPa | 0 mm | - | - | - |
| 1777565918 | 10° C | 21% | 1020.9 hPa | 0 mm | - | - | - |
| 1777565516 | 9.44° C | 18% | 1020.9 hPa | 0 mm | - | - | - |
| 1777565113 | 9.44° C | 21% | 1021 hPa | 0 mm | - | - | - |
| 1777564712 | 9.44° C | 23% | 1020.8 hPa | 0 mm | - | - | - |
| 1777564309 | 9.44° C | 26% | 1020.6 hPa | 0 mm | - | - | - |
| 1777563907 | 8.89° C | 30% | 1020.6 hPa | 0 mm | - | - | - |
| 1777563505 | 8.89° C | 31% | 1020.6 hPa | 0 mm | - | - | - |
| 1777563103 | 8.89° C | 28% | 1020.4 hPa | 0 mm | - | - | - |
| 1777562700 | 8.33° C | 32% | 1020.6 hPa | 0 mm | - | - | - |
| 1777562298 | 8.33° C | 31% | 1020.7 hPa | 0 mm | - | - | - |
| 1777561896 | 8.33° C | 36% | 1020.6 hPa | 0 mm | - | - | - |
| 1777561494 | 7.78° C | 37% | 1020.4 hPa | 0 mm | - | - | - |
| 1777561091 | 7.78° C | 38% | 1020.4 hPa | 0 mm | - | - | - |
| 1777560689 | 7.78° C | 41% | 1020.4 hPa | 0 mm | - | - | - |
| 1777560287 | 7.22° C | 44% | 1020.2 hPa | 0 mm | - | - | - |
| 1777559885 | 7.22° C | 44% | 1020.2 hPa | 0 mm | - | - | - |
| 1777559482 | 6.67° C | 46% | 1020 hPa | 0 mm | - | - | - |
* Rain since midnight (hover to see other rain measurements)
** Current wind speed in m/s (hover to see current wind gust speed)